Regional Weather Roundup
Issued by NWS Green Bay, WI

Home | Current Version | Previous Version | Graphics & Text | Print | Product List | Glossary Off
Versions: 1 2 3 4 5 6 7 8 9 10 11 12 13 14 15 16 17 18 19 20 21 22 23 24 25 26 27 28 29 30 31 32 33 34 35 36 37 38 39 40 41 42 43 44 45 46 47 48 49 50

000
ASUS43 KGRB 160310
RWRGRB

NORTH-CENTRAL AND NORTHEAST WISCONSIN REGIONAL WEATHER ROUNDUP
NATIONAL WEATHER SERVICE GREEN BAY WI
1000 PM CDT MON SEP 15 2014

WIZ005-009-010>012-018-019-160400-
NORTH CENTRAL WISCONSIN

CITY           SKY/WX    TMP DP  RH WIND       PRES   REMARKS
IRONWOOD       CLEAR     37  36  93 SW3       30.13S
MANITOWISH WTR CLEAR     34  34 100 CALM      30.16R
ARBOR VITAE    CLEAR     39  37  91 CALM      30.16R
EAGLE RIVER    CLEAR     36  36 100 CALM      30.15S FOG
LAND O LAKES   CLEAR     35  35 100 CALM      30.15S
RHINELANDER    NOT AVBL
PHILLIPS       CLEAR     38  37  99 CALM      30.17R
ANTIGO         CLEAR     42  39  88 NW5       30.17S
TOMAHAWK       CLEAR     35  33  94 CALM      30.18S
MERRILL        MOCLDY    40  38  91 CALM      30.18R
$$

WIZ013-073-160400-
NORTHEAST WISCONSIN

CITY           SKY/WX    TMP DP  RH WIND       PRES   REMARKS
IRON MOUNTAIN  CLEAR     41  38  89 CALM      30.13S
MARINETTE      CLEAR     52  43  71 N10       30.12R
OCONTO         CLEAR     48  46  93 NW6       30.14R
$$

WIZ017-030-035>037-045-160400-
CENTRAL WISCONSIN

CITY           SKY/WX    TMP DP  RH WIND       PRES   REMARKS
MEDFORD        CLEAR     37  37  98 CALM      30.19R
WAUSAU         CLEAR     46  40  79 CALM      30.17R
MOSINEE        CLEAR     45  41  87 NW7       30.19R
MARSHFIELD     CLEAR     43  39  86 NW5       30.18R
WISC RAPIDS    CLEAR     46  41  82 NW5       30.20R
STEVENS POINT  CLEAR     46  39  77 CALM      30.18R
WAUPACA        CLEAR     50  44  80 W5        30.17R
SHAWANO        CLEAR     48  45  87 NW5       30.16R
CLINTONVILLE   CLEAR     46  43  87 NW6       30.16R
$$

WIZ038-039-048-051-160400-
FOX VALLEY

CITY           SKY/WX    TMP DP  RH WIND       PRES   REMARKS
NWS GREEN BAY  CLEAR     46  45  96 W5        30.14R
APPLETON       PTCLDY    50  48  93 W9        30.15S
OSHKOSH        CLEAR     51  47  86 W6        30.15R
FOND DU LAC    CLEAR     48  45  89 SW5       30.15F
$$

WIZ022-050-052-160400-
EAST CENTRAL WISCONSIN

CITY           SKY/WX    TMP DP  RH WIND       PRES   REMARKS
STURGEON BAY   MOCLDY    50  46  87 SW3       30.12S
MANITOWOC      CLEAR     49  47  93 W3        30.14S
SHEBOYGAN      CLEAR     47  45  93 W6        30.15S
$$

LMZ563-521-522-541>543-160400-
LAKESHORE

STATION/POSITION TIME  TEMP    WIND        PRES    VSBY  WAVE
                       AIR SEA DIR/SP/G                  HT/PER
                 (UTC) (F)     (DEG/KT/KT) (MB)    (MI)  (FT/S)
SHEBOYGAN LKSHOR 0300   52 52  260/  8/  9 1021.2S
KEWAUNEE LKSHORE 0300                      1019.1
NORTHPORT PIER   0300   55      30/  5/  6 1020.0R
N MID LAKE BUOY  0300   56 58   20/  8/ 10 1019.8R         1
S GREEN BAY BUOY 0200   58     VRB 12/ 12  1020.7R
CHAMBERS ISLAND  0300   50     270/  1/  3 1019.6F
MENOMINEE LKSHOR 0300                      1020.5
$$


USA.gov is the U.S. government's official web portal to all federal, state and local government web resources and services.